Location: Unspecified
(51.6250°N, 0.8230°E)
Time: 06:22:23
(UTC+01:00)

Resurs 1-4 Rocket - Visible Passes

Search period start: 27 May 2018 00:00
Search period end: 06 June 2018 00:00
Orbit: 799 x 814 km, 98.5° (Epoch: 26 May)

Date Brightness Start Highest point End Pass type
(mag) Time Alt. Az. Time Alt. Az. Time Alt. Az.
27 May 3.6 02:11:17 10° NNE 02:15:52 29° E 02:20:27 10° SSE visible
27 May 2.5 03:50:50 10° N 03:55:58 52° WNW 04:01:06 10° SW visible
28 May 4.1 01:47:17 10° NE 01:51:00 19° E 01:54:43 10° SE visible
28 May 2.2 03:26:08 10° NNE 03:31:27 78° WNW 03:36:46 10° SSW visible
29 May 4.5 01:24:03 10° ENE 01:26:02 12° E 01:28:01 10° ESE visible
29 May 2.3 03:01:32 10° NNE 03:06:52 70° ESE 03:11:57 11° S visible
30 May 2.9 02:37:04 10° NNE 02:42:11 45° E 02:47:07 11° S visible
31 May 3.6 02:12:46 10° NNE 02:17:25 30° E 02:22:02 10° SSE visible
31 May 2.6 03:52:21 10° N 03:57:29 50° WNW 04:02:36 10° SW visible
01 Jun 4.1 01:48:45 10° NE 01:52:33 20° E 01:56:21 10° SE visible
01 Jun 2.2 03:27:39 10° NNE 03:32:59 76° WNW 03:38:17 10° SSW visible
02 Jun 4.5 01:25:24 10° ENE 01:27:35 12° E 01:29:47 10° ESE visible
02 Jun 2.3 03:03:03 10° NNE 03:08:24 72° ESE 03:13:38 10° S visible
03 Jun 2.9 02:38:35 10° NNE 02:43:43 47° E 02:48:47 10° S visible
04 Jun 3.5 02:14:15 10° NNE 02:18:57 31° E 02:23:38 10° SSE visible
04 Jun 2.6 03:53:53 10° N 03:59:00 49° WNW 04:04:06 10° SW visible
05 Jun 4.1 01:50:13 10° NE 01:54:06 20° E 01:57:59 10° SE visible
05 Jun 2.2 03:29:11 10° NNE 03:34:30 74° WNW 03:39:49 10° SSW visible
